TimeEDT,TemperatureF,Dew PointF,Humidity,Sea Level PressureIn,VisibilityMPH,Wind Direction,Wind SpeedMPH,Gust SpeedMPH,PrecipitationIn,Events,Conditions,WindDirDegrees,DateUTC
12:53 AM,55.0,48.9,80,30.10,9.0,SE,3.5,-,N/A,,Clear,130,2012-10-25 04:53:00
1:53 AM,54.0,48.9,83,30.11,9.0,Calm,Calm,-,N/A,,Clear,0,2012-10-25 05:53:00
2:53 AM,53.1,48.9,86,30.10,9.0,Calm,Calm,-,N/A,,Clear,0,2012-10-25 06:53:00
3:53 AM,52.0,48.9,89,30.09,9.0,Calm,Calm,-,N/A,,Clear,0,2012-10-25 07:53:00
4:53 AM,52.0,48.9,89,30.09,8.0,Calm,Calm,-,N/A,,Clear,0,2012-10-25 08:53:00
5:53 AM,50.0,46.0,86,30.10,9.0,Calm,Calm,-,N/A,,Clear,0,2012-10-25 09:53:00
6:53 AM,50.0,46.0,86,30.11,10.0,Calm,Calm,-,N/A,,Clear,0,2012-10-25 10:53:00
7:53 AM,48.0,46.0,93,30.12,10.0,Calm,Calm,-,N/A,,Clear,0,2012-10-25 11:53:00
8:53 AM,51.1,46.9,86,30.14,10.0,Calm,Calm,-,N/A,,Clear,0,2012-10-25 12:53:00
10:53 AM,68.0,48.9,50,30.14,10.0,South,4.6,-,N/A,,Clear,180,2012-10-25 14:53:00
11:53 AM,73.0,48.0,41,30.13,10.0,Calm,Calm,-,N/A,,Clear,0,2012-10-25 15:53:00
12:53 PM,77.0,48.9,37,30.11,10.0,SW,5.8,-,N/A,,Clear,220,2012-10-25 16:53:00
1:53 PM,79.0,50.0,36,30.07,10.0,Variable,3.5,-,N/A,,Clear,0,2012-10-25 17:53:00
2:53 PM,80.1,48.9,34,30.05,10.0,South,4.6,-,N/A,,Clear,180,2012-10-25 18:53:00
3:53 PM,81.0,48.0,31,30.04,10.0,West,6.9,-,N/A,,Clear,270,2012-10-25 19:53:00
4:53 PM,80.1,46.9,31,30.03,10.0,South,8.1,-,N/A,,Clear,180,2012-10-25 20:53:00
5:53 PM,79.0,46.0,31,30.03,10.0,South,4.6,-,N/A,,Clear,180,2012-10-25 21:53:00
6:53 PM,75.9,45.0,33,30.03,10.0,Calm,Calm,-,N/A,,Clear,0,2012-10-25 22:53:00
7:53 PM,66.9,48.0,51,30.04,10.0,Calm,Calm,-,N/A,,Clear,0,2012-10-25 23:53:00
8:53 PM,64.0,46.9,54,30.04,10.0,Calm,Calm,-,N/A,,Clear,0,2012-10-26 00:53:00
9:53 PM,60.1,46.9,62,30.04,5.0,ESE,3.5,-,N/A,,Haze,120,2012-10-26 01:53:00
10:53 PM,60.1,46.9,62,30.04,10.0,Calm,Calm,-,N/A,,Clear,0,2012-10-26 02:53:00
11:53 PM,66.9,46.0,47,30.03,10.0,SSE,6.9,-,N/A,,Clear,150,2012-10-26 03:53:00